METEOR 2-6 DEB, 36309

Orbit data source: Space-Track

METEOR 2-6 DEB, 36309 is space debris in LEO originally from a launch on Tue, 09 Sep 1980 UTC launched from the Plesetsk Missile And Space Complex (PKMTR). Debris objects in space refer to the collection of defunct objects orbiting the Earth. Examples of debris include non-operational satellites, rocket bodies, and fragments generated from explosions, collisions, or faulty payload assembly.

Loading next visibility...
Identifier
36309, 1980-073M
Orbit
LEO
Country
Flag of CISCIS
Related business
Manufacturer
Unknown
Mission
Spacecraft
Bus & Motor
Unknown
Mass
Unknown
Launch date (UTC)
1980-09-09 (46 years ago)
Launch vehicle
Unknown
Launch site
Plesetsk Missile And Space Complex (PKMTR)
Object type
Payload
Rocket body
Debris
Shape & HBR
Unknown shape, 0.050 m
Radar Cross Section
Small (<0.1 m²)

Expand to show TLE details & history
Last TLE update: 4 days ago

TLE from 4 days ago
0 METEOR 2-6 DEB
1 36309U 80073M   26263.50769647  .00010401  00000-0  15488-2 0  9996
2 36309  81.1989 179.1924 0016668  98.1667 262.1431 14.74744511695496
Epoch: 2026-09-20T12:11Z
TLE epoch observation values (Epoch: 2026-09-20T12:11:04.975Z)
Latitude
-0.00002°
Longitude
-2.97921°
Altitude
650.568 km
Speed
7.532 km/s
True Right ascension
11h 56m 46s
True Declination
0° 00' 00"
Sunlit
Object was in daylight at epoch
Visualization orbit readout
Latitude
Unknown
Longitude
Unknown
Altitude
Unknown
Speed
Unknown
Apparent Right ascension
Unknown
Apparent Declination
Unknown
Sunlit
N/A
Visualization observer readout
Local Sidereal Time
10:07:45
Azimuth
Unknown
Elevation
Unknown
Doppler factor
Unknown
Orbital elements
Apogee altitude
654.756 km
Perigee altitude
631.35 km
Semi-major axis
7,021.19 km
Eccentricity
0.00167
Inclination
81.1989°
RAAN
179.1924°
Arg. of periapsis
98.1667°
True anomaly
261.95395°
Mean anomaly
262.1431°
Eccentric anomaly
262.04852°
Mean motion
3.68916 °/min
Orbital period
97.58 mins
BSTAR
0.0015488
Loading maneuver chart data...
Computing Atmospheric mass density...
Loading historical data...
Loading historical data...
Loading historical data...
Loading historical data...
Loading historical data...
Loading historical data...
Loading historical data...

Documentation

Showing up to 5 results
|